ORBCOMM-X 1 21576U 91050C 26036.78739881 .00000496 00000+0 15923-3 0 9995 2 21576 98.3136 103.2927 0003507 181.1002 179.0182 14.43492347815817 ORBCOMM FM01 1 23545U 95017A 26036.80479879 .00015439 00000+0 14471-2 0 9990 2 23545 69.9606 209.9650 0006056 296.7661 63.2875 14.94090613647355 ORBCOMM FM02 1 23546U 95017B 26036.74856523 .00017483 00000+0 15593-2 0 9996 2 23546 69.9608 228.3658 0007266 300.1494 59.8943 14.95998880647024 ORBCOMM FM08 1 25112U 97084A 26036.79533002 .00002949 00000+0 84448-3 0 9999 2 25112 45.0143 325.6093 0007542 350.7434 9.3278 14.46860291475198 ORBCOMM FM10 1 25113U 97084B 26036.81427583 .00002730 00000+0 78920-3 0 9995 2 25113 45.0156 328.3460 0006111 321.4138 38.6276 14.46589943650334 ORBCOMM FM11 1 25114U 97084C 26036.86006456 .00002634 00000+0 76697-3 0 9995 2 25114 45.0142 329.1924 0006958 322.4083 37.6281 14.46328332475291 ORBCOMM FM12 1 25115U 97084D 26036.81914601 .00002772 00000+0 80473-3 0 9991 2 25115 45.0149 329.1138 0006008 320.6404 39.4011 14.46356326475081 ORBCOMM FM09 1 25116U 97084E 26036.80552453 .00002764 00000+0 80514-3 0 9991 2 25116 45.0154 330.3791 0007151 310.0763 49.9461 14.46185464475288 ORBCOMM FM05 1 25117U 97084F 26036.81212892 .00002826 00000+0 80934-3 0 9998 2 25117 45.0151 325.5192 0003603 324.9963 35.0652 14.46970045474432 ORBCOMM FM06 1 25118U 97084G 26036.85704828 .00003006 00000+0 85508-3 0 9991 2 25118 45.0146 324.7527 0002512 326.1580 77.5475 14.47144964475368 ORBCOMM FM07 1 25119U 97084H 26036.86057262 .00002820 00000+0 80454-3 0 9994 2 25119 45.0139 325.4783 0004375 321.3069 38.7469 14.47150058475353 ORBCOMM FM03 1 25158U 98007B 26036.54414507 .00001727 00000+0 64126-3 0 9990 2 25158 107.9663 255.1960 0045043 202.7782 157.1359 14.35229577457515 ORBCOMM FM04 1 25159U 98007C 26036.55838499 .00001605 00000+0 59799-3 0 9997 2 25159 107.9650 258.6048 0040758 200.2280 159.7246 14.35459585457709 ORBCOMM FM17 1 25413U 98046A 26036.77308280 .00001129 00000+0 43604-3 0 9996 2 25413 44.9928 234.7314 0002157 310.8110 49.2550 14.35678127436738 ORBCOMM FM18 1 25414U 98046B 26036.70301637 .00002454 00000+0 82722-3 0 9995 2 25414 44.9914 146.0530 0002884 9.0255 351.0645 14.39354575437881 ORBCOMM FM19 1 25415U 98046C 26036.78141322 .00002381 00000+0 80706-3 0 9996 2 25415 44.9927 148.0342 0001811 351.7609 175.1021 14.39176973437841 ORBCOMM FM20 1 25416U 98046D 26036.70384093 .00001678 00000+0 59841-3 0 9997 2 25416 44.9933 154.9115 0000744 202.8962 157.1853 14.37820877437867 ORBCOMM FM16 1 25417U 98046E 26036.75452082 .00002514 00000+0 83979-3 0 9996 2 25417 44.9921 142.9984 0002543 34.5231 325.5783 14.39739956437901 ORBCOMM FM15 1 25418U 98046F 26036.72070164 .00002203 00000+0 74723-3 0 9993 2 25418 44.9954 149.0222 0002285 36.8369 323.2637 14.39361743437886 ORBCOMM FM14 1 25419U 98046G 26036.67463583 .00002261 00000+0 75930-3 0 9994 2 25419 44.9941 146.7488 0001078 20.0983 339.9908 14.39793375437859 ORBCOMM FM13 1 25420U 98046H 26036.72602575 .00001854 00000+0 64904-3 0 9994 2 25420 44.9963 156.8931 0003527 5.7264 354.3624 14.38366493436854 ORBCOMM FM21 1 25475U 98053A 26036.65351880 .00001223 00000+0 44784-3 0 9998 2 25475 45.0068 243.4072 0001259 340.6533 19.4267 14.37942237430841 ORBCOMM FM22 1 25476U 98053B 26036.57820178 .00001559 00000+0 54459-3 0 9993 2 25476 45.0059 236.5925 0002748 326.3820 33.6854 14.39153261430883 ORBCOMM FM23 1 25477U 98053C 26036.61921757 .00001323 00000+0 47814-3 0 9990 2 25477 45.0069 245.3053 0002152 325.1604 34.9104 14.38198249430999 ORBCOMM FM24 1 25478U 98053D 26036.59903489 .00001499 00000+0 52870-3 0 9992 2 25478 45.0064 241.7997 0001938 335.7596 24.3161 14.38833879431059 ORBCOMM FM25 1 25479U 98053E 26036.01979394 .00001171 00000+0 42341-3 0 9997 2 25479 45.0057 242.8574 0004275 340.2875 19.7808 14.38799472431262 ORBCOMM FM26 1 25480U 98053F 26036.60884561 .00001144 00000+0 42360-3 0 9996 2 25480 45.0053 238.2910 0006147 357.7372 2.3448 14.37745444431232 ORBCOMM FM27 1 25481U 98053G 26036.76579780 .00001538 00000+0 54104-3 0 9994 2 25481 45.0040 239.4264 0000682 23.8232 336.2648 14.38842971431301 ORBCOMM FM28 1 25482U 98053H 26036.70935943 .00001791 00000+0 62136-3 0 9991 2 25482 45.0039 176.9211 0003360 40.5204 319.5894 14.38951326431984 ORBCOMM FM30 1 25980U 99065A 26036.71123175 .00001393 00000+0 50383-3 0 9994 2 25980 45.0317 63.8772 0004229 106.3140 253.8174 14.37910523368058 ORBCOMM FM31 1 25981U 99065B 26036.48723298 .00001322 00000+0 48117-3 0 9995 2 25981 45.0232 58.3837 0002440 157.0369 203.0589 14.37832394367577 ORBCOMM FM32 1 25982U 99065C 26036.47883809 .00001267 00000+0 47186-3 0 9993 2 25982 45.0157 76.5578 0004607 137.0465 223.0744 14.36896709368148 ORBCOMM FM33 1 25983U 99065D 26036.84359870 .00001641 00000+0 55299-3 0 9991 2 25983 45.0298 327.5188 0006765 161.8380 198.2713 14.40715261369754 ORBCOMM FM36 1 25984U 99065E 26036.48342604 .00001714 00000+0 59738-3 0 9992 2 25984 45.0393 64.6846 0002391 344.3455 15.7320 14.38890251368018 ORBCOMM FM35 1 25985U 99065F 26036.49714580 .00001294 00000+0 47269-3 0 9999 2 25985 45.0394 71.5683 0002527 160.5503 199.5442 14.37791510368359 ORBCOMM FM34 1 25986U 99065G 26036.53560585 .00001312 00000+0 47924-3 0 9998 2 25986 45.0390 71.8782 0001649 64.8200 295.2820 14.37715200368472 ORBCOMM FM38 1 33060U 08031A 26036.71374534 .00003051 00000+0 40158-3 0 9994 2 33060 48.4388 281.3696 0004737 325.1529 34.9077 14.82583582949381 ORBCOMM FM41 1 33061U 08031B 26036.72458112 .00002959 00000+0 39460-3 0 9991 2 33061 48.4428 289.9346 0004116 308.6811 86.3957 14.82122617948862 ORBCOMM FM29 1 33062U 08031C 26036.83198060 .00003353 00000+0 44165-3 0 9994 2 33062 48.4384 296.9023 0005736 309.9030 130.4215 14.82291983948793 ORBCOMM FM39 1 33063U 08031D 26036.81691801 .00002930 00000+0 40426-3 0 9990 2 33063 48.4407 323.9268 0006827 281.2365 78.7782 14.80690980948406 ORBCOMM FM37 1 33064U 08031E 26036.76367647 .00002809 00000+0 38698-3 0 9996 2 33064 48.4399 312.3393 0005349 299.6617 107.3229 14.80883856948657 ORBCOMM FM40 1 33065U 08031F 26036.76810145 .00003681 00000+0 46885-3 0 9999 2 33065 48.4408 292.1887 0006170 315.8201 87.3244 14.83484384948824 VESSELSAT 1 1 37840U 11058C 26036.54960066 .00000427 00000+0 88262-4 0 9992 2 37840 19.9614 121.7431 0013470 233.6002 126.3160 14.11413213739317 ORBCOMM FM109 1 40086U 14040A 26036.32111397 .00001157 00000+0 28213-3 0 9993 2 40086 47.0048 354.8611 0002317 319.0498 41.0213 14.58669233615097 ORBCOMM FM107 1 40087U 14040B 26036.26904153 .00001271 00000+0 30581-3 0 9995 2 40087 47.0066 355.9730 0001836 277.6940 82.3737 14.58747173615165 ORBCOMM FM106 1 40088U 14040C 26036.73390100 .00001840 00000+0 33288-3 0 9998 2 40088 47.0594 156.9600 0015558 72.4869 287.7721 14.70220124617830 ORBCOMM FM111 1 40089U 14040D 26036.81572911 .00005293 00000+0 58689-3 0 9998 2 40089 47.0017 334.3210 0028957 233.4860 126.3369 14.88146131625005 ORBCOMM FM104 1 40090U 14040E 26036.37817054 .00000902 00000+0 23543-3 0 9994 2 40090 47.0060 31.8934 0016207 194.3713 165.6713 14.57115275614620 ORBCOMM FM103 1 40091U 14040F 26036.80265160 .00001203 00000+0 29199-3 0 9996 2 40091 47.0069 354.1478 0002468 277.2975 82.7630 14.58655639598205 ORBCOMM FM114 1 41179U 15081A 26036.75010263 .00000859 00000+0 21867-3 0 9996 2 41179 47.0041 263.3436 0002588 311.6161 48.4502 14.58674773538561 ORBCOMM FM119 1 41180U 15081B 26036.74816865 .00001159 00000+0 28279-3 0 9997 2 41180 46.9992 172.7093 0000522 353.5114 6.5765 14.58618230539818 ORBCOMM FM105 1 41181U 15081C 26036.80757542 .00000469 00000+0 17643-3 0 9997 2 41181 46.9998 200.2544 0002129 279.4975 80.5664 14.45465502534542 ORBCOMM FM110 1 41182U 15081D 26036.67075418 .00001081 00000+0 26598-3 0 9998 2 41182 47.0013 263.1980 0002811 196.5602 163.5192 14.58665227538428 ORBCOMM FM118 1 41183U 15081E 26036.63679353 .00001019 00000+0 25279-3 0 9999 2 41183 47.0032 263.6667 0002621 154.2685 205.8331 14.58667949538527 ORBCOMM FM112 1 41184U 15081F 26036.77681067 .00001526 00000+0 36046-3 0 9997 2 41184 46.9981 171.5185 0002050 301.1606 58.9079 14.58665635539766 ORBCOMM FM113 1 41185U 15081G 26036.75406667 .00001543 00000+0 36391-3 0 9999 2 41185 46.9995 171.9895 0001707 303.8307 56.2416 14.58669307539743 ORBCOMM FM115 1 41186U 15081H 26036.31031115 .00001278 00000+0 28055-3 0 9997 2 41186 46.9998 10.3831 0000755 350.0356 10.0517 14.63053922541900 ORBCOMM FM108 1 41187U 15081J 26036.51129952 .00001427 00000+0 33938-3 0 9999 2 41187 47.0049 84.6657 0003415 297.3049 62.7489 14.58671061540857 ORBCOMM FM117 1 41188U 15081K 26036.54519271 .00001494 00000+0 35365-3 0 9990 2 41188 47.0012 83.1817 0003676 304.8006 55.2533 14.58665243540904 ORBCOMM FM116 1 41189U 15081L 26036.79985109 .00001115 00000+0 27329-3 0 9996 2 41189 47.0013 171.7577 0002010 194.3868 165.6960 14.58647180539753